User: anonymous   Login
Location: 10033 Water Well
(34.0865°N, 106.8959°W)
Time: 11:16:58
(UTC+00:00)
Language:

Cosmos 1703 - Orbit

View from above orbital plane
View from above orbital plane
View from above satellite
View from above satellite

Ground track
Ground track

The orbit is defined by the following mean orbital elements,

1 16262U          26064.16616726 +.00000000 +00000-0 +53212-3 0 00009
2 16262  82.4617 326.3549 0006646  30.9225 329.2416 15.50327167    06
Epoch (UTC): 05 March 2026 03:59:16
Eccentricity: 0.0006646
inclination: 82.4617°
perigee height: 411 km
apogee height: 420 km
right ascension of ascending node: 326.3549°
argument of perigee: 30.9225°
revolutions per day: 15.50327167
mean anomaly at epoch: 329.2416°

The dashed part of the orbit path shows where the satellite is in the earth's shadow,  

DLR